Stündliche Wetter Aarau

Heute, 24 Juni, Donnerstag

Zeit Temperatur Niederschläge Wind Luftdruck Luftfeuchtigkeit
00:00 +16°C° 0.5 mm 1 m/S 727 mmHg 98%
01:00 +16°C° 0.5 mm 1 m/S 727 mmHg 97%
02:00 +15°C° 0.1 mm 1 m/S 727 mmHg 97%
03:00 +15°C° 0.1 mm 1 m/S 727 mmHg 97%
04:00 +13°C° 0.1 mm 0 m/S 726 mmHg 97%
05:00 +14°C° 0 mm 0 m/S 726 mmHg 96%
06:00 +15°C° 0 mm 0 m/S 727 mmHg 95%
07:00 +16°C° 0 mm 0 m/S 727 mmHg 94%
08:00 +17°C° 0.5 mm 0 m/S 727 mmHg 88%
09:00 +20°C° 0.5 mm 1 m/S 727 mmHg 82%
10:00 +22°C° 0.5 mm 1 m/S 727 mmHg 77%
11:00 +22°C° 0.5 mm 1 m/S 727 mmHg 74%
12:00 +23°C° 0.5 mm 1 m/S 727 mmHg 71%
13:00 +23°C° 0.5 mm 2 m/S 726 mmHg 68%
14:00 +21°C° 1.8 mm 2 m/S 726 mmHg 74%
15:00 +20°C° 1.8 mm 3 m/S 726 mmHg 79%
16:00 +19°C° 1.8 mm 3 m/S 726 mmHg 84%
17:00 +18°C° 3.9 mm 3 m/S 727 mmHg 88%
18:00 +16°C° 3.9 mm 2 m/S 728 mmHg 92%
19:00 +15°C° 3.9 mm 2 m/S 728 mmHg 97%
20:00 +15°C° 0.3 mm 2 m/S 729 mmHg 97%
21:00 +15°C° 0.3 mm 1 m/S 729 mmHg 97%
22:00 +14°C° 0.3 mm 1 m/S 729 mmHg 97%
23:00 +14°C° 0 mm 1 m/S 729 mmHg 97%

Morgen, 25 Juni, Freitag

Zeit Temperatur Niederschläge Wind Luftdruck Luftfeuchtigkeit
00:00 +13°C° 0 mm 1 m/S 729 mmHg 97%
01:00 +13°C° 0 mm 1 m/S 729 mmHg 97%
02:00 +13°C° 0.1 mm 1 m/S 728 mmHg 97%
03:00 +12°C° 0.1 mm 0 m/S 728 mmHg 97%
04:00 +12°C° 0.1 mm 0 m/S 728 mmHg 97%
05:00 +12°C° 0.1 mm 0 m/S 728 mmHg 97%
06:00 +13°C° 0.1 mm 0 m/S 728 mmHg 97%
07:00 +13°C° 0.1 mm 0 m/S 729 mmHg 97%
08:00 +14°C° 0.1 mm 0 m/S 728 mmHg 95%
09:00 +14°C° 0.1 mm 0 m/S 728 mmHg 93%
10:00 +16°C° 0.1 mm 1 m/S 728 mmHg 91%
11:00 +18°C° 0.3 mm 1 m/S 728 mmHg 84%
12:00 +20°C° 0.3 mm 1 m/S 728 mmHg 76%
13:00 +20°C° 0.3 mm 2 m/S 728 mmHg 69%
14:00 +20°C° 0.3 mm 2 m/S 727 mmHg 68%
15:00 +21°C° 0.3 mm 2 m/S 727 mmHg 68%
16:00 +21°C° 0.3 mm 2 m/S 727 mmHg 67%
17:00 +20°C° 0.3 mm 2 m/S 727 mmHg 72%
18:00 +20°C° 0.3 mm 1 m/S 727 mmHg 77%
19:00 +19°C° 0.3 mm 1 m/S 727 mmHg 82%
20:00 +18°C° 0 mm 1 m/S 728 mmHg 86%
21:00 +15°C° 0 mm 1 m/S 728 mmHg 90%
22:00 +13°C° 0 mm 0 m/S 728 mmHg 93%
23:00 +13°C° 0 mm 0 m/S 728 mmHg 94%

übermorgen, 26 Juni, Samstag

Zeit Temperatur Niederschläge Wind Luftdruck Luftfeuchtigkeit
00:00 +12°C° 0 mm 0 m/S 728 mmHg 94%
01:00 +12°C° 0 mm 0 m/S 728 mmHg 95%
02:00 +11°C° 0 mm 0 m/S 727 mmHg 95%
03:00 +11°C° 0 mm 0 m/S 727 mmHg 95%
04:00 +11°C° 0 mm 0 m/S 727 mmHg 96%
05:00 +12°C° 0 mm 0 m/S 727 mmHg 94%
06:00 +13°C° 0 mm 0 m/S 727 mmHg 91%
07:00 +14°C° 0 mm 0 m/S 727 mmHg 89%
08:00 +18°C° 0 mm 1 m/S 727 mmHg 81%
09:00 +20°C° 0 mm 1 m/S 727 mmHg 73%
10:00 +22°C° 0 mm 1 m/S 727 mmHg 64%
11:00 +23°C° 0 mm 1 m/S 727 mmHg 59%
12:00 +25°C° 0 mm 1 m/S 727 mmHg 54%
13:00 +26°C° 0 mm 1 m/S 727 mmHg 50%
14:00 +26°C° 0 mm 1 m/S 726 mmHg 48%
15:00 +27°C° 0 mm 1 m/S 726 mmHg 47%
16:00 +27°C° 0 mm 1 m/S 726 mmHg 46%
17:00 +26°C° 0 mm 1 m/S 726 mmHg 55%
18:00 +24°C° 0 mm 1 m/S 726 mmHg 65%
19:00 +23°C° 0 mm 1 m/S 725 mmHg 75%
20:00 +21°C° 0 mm 1 m/S 725 mmHg 79%
21:00 +20°C° 0 mm 1 m/S 725 mmHg 83%
22:00 +18°C° 0 mm 1 m/S 725 mmHg 88%
23:00 +18°C° 0 mm 1 m/S 725 mmHg 90%

27 Juni, Sonntag

Zeit Temperatur Niederschläge Wind Luftdruck Luftfeuchtigkeit
00:00 +16°C° 0 mm 1 m/S 725 mmHg 91%
01:00 +16°C° 0 mm 1 m/S 725 mmHg 93%
02:00 +15°C° 0 mm 1 m/S 725 mmHg 94%
03:00 +15°C° 0 mm 1 m/S 724 mmHg 94%
04:00 +15°C° 0 mm 1 m/S 724 mmHg 94%
05:00 +16°C° 0 mm 1 m/S 724 mmHg 91%
06:00 +18°C° 0 mm 1 m/S 724 mmHg 87%
07:00 +17°C° 0 mm 0 m/S 724 mmHg 84%
08:00 +21°C° 0 mm 1 m/S 725 mmHg 75%
09:00 +24°C° 0 mm 1 m/S 725 mmHg 67%
10:00 +26°C° 0 mm 1 m/S 725 mmHg 58%
11:00 +27°C° 0 mm 1 m/S 724 mmHg 54%
12:00 +28°C° 0 mm 1 m/S 724 mmHg 50%
13:00 +29°C° 0 mm 2 m/S 724 mmHg 45%
14:00 +29°C° 0 mm 2 m/S 723 mmHg 46%
15:00 +29°C° 0 mm 2 m/S 723 mmHg 47%
16:00 +30°C° 0 mm 2 m/S 723 mmHg 48%
17:00 +27°C° 0.9 mm 2 m/S 723 mmHg 62%
18:00 +25°C° 0.9 mm 2 m/S 723 mmHg 75%
19:00 +21°C° 0.9 mm 3 m/S 724 mmHg 88%
20:00 +20°C° 1.4 mm 2 m/S 724 mmHg 91%
21:00 +20°C° 1.4 mm 1 m/S 724 mmHg 94%
22:00 +19°C° 1.4 mm 1 m/S 724 mmHg 97%
23:00 +19°C° 0.2 mm 1 m/S 724 mmHg 97%

28 Juni, Montag

Zeit Temperatur Niederschläge Wind Luftdruck Luftfeuchtigkeit
00:00 +16°C° 0.2 mm 0 m/S 724 mmHg 97%
01:00 +16°C° 0.2 mm 0 m/S 724 mmHg 97%
02:00 +18°C° 0.3 mm 1 m/S 724 mmHg 97%
03:00 +16°C° 0.3 mm 1 m/S 724 mmHg 97%
04:00 +16°C° 0.3 mm 1 m/S 724 mmHg 98%
05:00 +18°C° 0.1 mm 1 m/S 724 mmHg 97%
06:00 +18°C° 0.1 mm 1 m/S 725 mmHg 96%
07:00 +19°C° 0.1 mm 1 m/S 725 mmHg 96%
08:00 +20°C° 0.1 mm 1 m/S 725 mmHg 94%
09:00 +20°C° 0.1 mm 1 m/S 725 mmHg 92%
10:00 +21°C° 0.1 mm 1 m/S 725 mmHg 90%
11:00 +20°C° 0.2 mm 2 m/S 726 mmHg 86%
12:00 +21°C° 0.2 mm 2 m/S 726 mmHg 82%
13:00 +23°C° 0.2 mm 2 m/S 726 mmHg 79%
14:00 +21°C° 1.4 mm 2 m/S 726 mmHg 85%
15:00 +21°C° 1.4 mm 1 m/S 726 mmHg 91%
16:00 +20°C° 1.4 mm 1 m/S 726 mmHg 97%
17:00 +20°C° 2.1 mm 1 m/S 726 mmHg 97%
18:00 +19°C° 2.1 mm 1 m/S 726 mmHg 97%
19:00 +19°C° 2.1 mm 1 m/S 726 mmHg 97%
20:00 +19°C° 1.3 mm 1 m/S 726 mmHg 97%
21:00 +16°C° 1.3 mm 0 m/S 726 mmHg 98%
22:00 +16°C° 1.3 mm 0 m/S 726 mmHg 98%
23:00 +16°C° 0.7 mm 0 m/S 726 mmHg 98%

29 Juni, Dienstag

Zeit Temperatur Niederschläge Wind Luftdruck Luftfeuchtigkeit
00:00 +18°C° 0.7 mm 1 m/S 726 mmHg 98%
01:00 +18°C° 0.7 mm 1 m/S 726 mmHg 98%
02:00 +16°C° 0.7 mm 0 m/S 726 mmHg 98%
03:00 +16°C° 0.7 mm 0 m/S 726 mmHg 98%
04:00 +16°C° 0.7 mm 0 m/S 726 mmHg 98%
05:00 +16°C° 0.1 mm 0 m/S 726 mmHg 98%
06:00 +16°C° 0.1 mm 0 m/S 726 mmHg 98%
07:00 +16°C° 0.1 mm 0 m/S 726 mmHg 98%
08:00 +17°C° 0.1 mm 0 m/S 726 mmHg 96%
09:00 +17°C° 0.1 mm 0 m/S 726 mmHg 94%
10:00 +18°C° 0.1 mm 0 m/S 726 mmHg 92%
11:00 +20°C° 0.3 mm 1 m/S 726 mmHg 91%
12:00 +20°C° 0.3 mm 1 m/S 726 mmHg 91%
13:00 +20°C° 0.3 mm 1 m/S 726 mmHg 91%
14:00 +20°C° 1 mm 1 m/S 726 mmHg 93%
15:00 +18°C° 1 mm 2 m/S 726 mmHg 95%
16:00 +18°C° 1 mm 2 m/S 726 mmHg 97%
17:00 +17°C° 1.6 mm 2 m/S 726 mmHg 97%
18:00 +18°C° 1.6 mm 1 m/S 726 mmHg 98%
19:00 +16°C° 1.6 mm 1 m/S 727 mmHg 98%
20:00 +16°C° 0.9 mm 1 m/S 727 mmHg 98%
21:00 +16°C° 0.9 mm 1 m/S 727 mmHg 98%
22:00 +16°C° 0.9 mm 1 m/S 728 mmHg 98%
23:00 +16°C° 0.1 mm 1 m/S 727 mmHg 98%
Mehr zeigen

Wir brauchen deine Erlaubnis

Meteoprog und unser Service Anbieter werden persönliche Daten aufbewahren, so wie Cookies, Geräte Bezeichnung oder ähnliche Technologien von deinem Gerät und Prozess, so wie Persönliche Daten Inhalte und Werbungen, genauso wie social Media und den Verkehr zu analysieren.

  • Aufbewahrung und/oder Zugang zu deiner Geräte Informationen.

    Cookies, Geräte Bezeichnung oder andere Informationen, können aufbewahrt oder Zugang zu deinem Gerät erhalten, für den Grund, der oben angegeben wird.

  • Personalisierte Werbung und Inhalte, Messungen, Einblick in das Publikum und Produkt Entwicklung.

    Werbungen und Inhalte können personalisiert werden, basierend auf ein Profil. Mehr Daten können besser personalisierte Werbungen und Inhalte hinzufügen. Werbung und Inhalte können gezeigt und gemessen werden. Einblicke über das Publikum, welche die Werbung gesehen haben und den Inhalt, können abgeleitet werden. So wie Daten können genutzt werden, um es zu verbessern oder die Benutzer Erfahrung zu verbessern das System und die Software.

Wenn du “Ich stimme zu” klickst, erlaubst du uns, die Cookies zu benutzen die Geräte Bezeichnung, den Web oder ähnliche Technologien zu benutzen. Deine Settings, können in deinem Gerät bei deinem Browser geändert werden.

Für den bestimmten Zweck, berechtigten Interessen beruhen darauf, mehr als auf den Inhalt. Du kannst mehr darüber in unseren Privaten und Cookie Politik lesen.